Regional Weather Roundup
Issued by NWS

Home | Current Version | Previous Version | Graphics & Text | Print | Product List | Glossary On
Versions: 1 2 3 4 5 6 7 8 9 10 11 12 13 14 15 16 17 18 19 20 21 22 23 24 25 26 27 28 29 30 31 32 33 34 35 36 37 38 39 40 41 42 43 44 45 46 47 48 49 50
000
ASUS45 KBOU 220107
RWRCO

WEATHER ROUNDUP FOR COLORADO
NATIONAL WEATHER SERVICE DENVER/BOULDER CO
700 PM MDT THU SEP 21 2017

NOTE: "FAIR" INDICATES FEW OR NO CLOUDS BELOW 12000 FEET WITH NO
SIGNIFICANT WEATHER AND/OR OBSTRUCTIONS TO VISIBILITY.

COZ001>005-013-030-031-220200-
...NORTHWEST COLORADO...

CITY           SKY/WX    TMP DP  RH WIND       PRES   REMARKS
CRAIG          FAIR      71  17  12 SW9G21    29.74R
HAYDEN         FAIR      71  21  15 SW17G24   29.78R
MEEKER         FAIR      71  18  13 S14       29.76S
RABBIT EARS PA FAIR      54  19  26 SW10G31   30.06F
STEAMBOAT SPGS FAIR      71  22  16 S5        29.80R
WALDEN         FAIR      63  16  16 SW12      29.91R
$$

COZ006>008-011-220200-
...WEST CENTRAL VALLEYS...

CITY           SKY/WX    TMP DP  RH WIND       PRES   REMARKS
GRAND JUNCTION FAIR      80  19  10 S12       29.66S
MONTROSE       FAIR      75  21  13 S8        29.77S
EAGLE          FAIR      73  24  16 SW22      29.81R
RIFLE          FAIR      78  17  10 VRB7      29.72F
DELTA          FAIR      80  17   9 S10G21    29.73S
NUCLA          FAIR      77  16  10 S36G43    29.80S
$$

COZ017>023-064>068-220200-
...SOUTHWEST COLORADO...

CITY           SKY/WX    TMP DP  RH WIND       PRES   REMARKS
DURANGO        FAIR      72  21  14 S15G23    29.93F
CORTEZ         FAIR      74  20  13 S18       29.84F
PAGOSA SPRINGS FAIR      69  14  12 SW5       30.02S
TELLURIDE      FAIR      63  17  17 SE6G17    30.06R
WOLF CREEK PAS FAIR      45  18  33 S26G38    30.30R
$$

COZ009-010-012-014-032>034-037-058>063-220200-
...CENTRAL COLORADO...

CITY           SKY/WX    TMP DP  RH WIND       PRES   REMARKS
ASPEN          FAIR      67  23  19 S8        29.88R
BUENA VISTA    FAIR      67  16  14 S9        29.94R
COPPER MTN     FAIR      55  10  16 S18G25    30.20F
BERTHOUD PASS  FAIR      48  39  71 SW13G22   30.24S
COTTONWOOD PAS FAIR      64  18  16 SW12      30.08S
GUNNISON       FAIR      68  23  18 S20G30    29.92S
KREMMLING      FAIR      73  14  10 W13G18    29.84S
LEADVILLE      FAIR      58  15  18 S15       30.04R
MONARCH PASS   FAIR      50  19  29 SW32G43   30.33S
SALIDA         FAIR      72  18  13 S15G22    29.99S
SUNLIGHT       FAIR      48  18  29 SW9G22    30.11F
WILKERSON PASS FAIR      52  18  25 S10G17    30.19R
$$

COZ069>075-220200-
...SAN LUIS VALLEY/SANGRE DE CRISTO MOUNTAINS...

CITY           SKY/WX    TMP DP  RH WIND       PRES   REMARKS
ALAMOSA        FAIR      67  23  19 SW13      29.98S
DEL NORTE      FAIR      66  24  20 SW10      30.01S
LA VETA PASS   FAIR      57  18  21 MISG      30.26R
SAGUACHE       FAIR      64  25  22 W9        30.01R
$$

COZ035-036-038>040-220200-
...NORTHERN COLORADO FRONT RANGE...

CITY           SKY/WX    TMP DP  RH WIND       PRES   REMARKS
DENVER INTL AP FAIR      80  23  12 S23       29.67R
DMNS CITY PARK   N/A     79  25  13 SE7       29.66R
AURORA         PTCLDY    81  20  10 S21       29.69R
FRONT RANGE AP PTCLDY    81  23  12 S16       29.69S
ERIE MUNI ARPT FAIR      75  27  16 W9        29.67R
BOULDER MUN AP FAIR      77  30  18 NW6       29.65S
CENTENNIAL     FAIR      79  17  10 S17       29.71R
BROOMFIELD     PTCLDY    81  27  13 NW17      29.67S
FORT COLLINS   FAIR      75  34  22 N7        29.63F
LONGMONT       FAIR      74  32  21 NW7       29.64F
$$

COZ041-046-047-076>085-087-088-220200-
...PIKES PEAK/PALMER DIVIDE AND SOUTHERN FOOTHILLS...

CITY           SKY/WX    TMP DP  RH WIND       PRES   REMARKS
COLO. SPRINGS  FAIR      74  25  16 S13       29.82R
A. F. ACADEMY  FAIR      72  22  15 SE18      29.82R
SCHRIEVER AFB  FAIR      69  23  17 S8        29.82R
CHEYENNE MTN   FAIR      71  20  14 SW6       29.82R
ELLICOTT         N/A    N/A N/A N/A S15       29.80S
FALCON         FAIR      68  21  17 S10       29.87R
FORT CARSON    FAIR      78  21  12 S13       29.78R
LIMON          FAIR      76  23  14 S9        29.75R
MONUMENT HILL  FAIR      68  23  18 S12       29.86S
CANON CITY     CLEAR     81  27  13 S12       29.75R
WALSENBURG     FAIR      77  23  13 SW12      29.85R
TRINIDAD       FAIR      76  28  17 SW12      29.84R
$$

COZ042>045-048>051-090-091-220200-
...NORTHEAST COLORADO...

CITY           SKY/WX    TMP DP  RH WIND       PRES   REMARKS
GREELEY ARPT   FAIR      80  31  16 SE12      29.61F
AKRON          FAIR      80  21  11 S8        29.67F
BURLINGTON     FAIR      78  30  17 S12       29.70R
WRAY           FAIR      82  23  11 S9        29.63S
YUMA           FAIR      70  36  28 S7        29.65R
STERLING       FAIR      81  36  19 SE3       29.61S
HOLYOKE        FAIR      79  36  21 SE7       29.63R
FORT MORGAN    FAIR      77  24  14 S7        29.65R
$$

COZ086-089-092>099-220200-
...SOUTHEAST COLORADO...

CITY           SKY/WX    TMP DP  RH WIND       PRES   REMARKS
PUEBLO         FAIR      82  24  12 S7        29.71R
LA JUNTA       FAIR      83  29  14 SW9       29.69R
LAMAR          FAIR      86  32  14 S20G26    29.66R
SPRINGFIELD      N/A     78  36  21 S14       29.78S
$$



USA.gov is the U.S. government's official web portal to all federal, state and local government web resources and services.